[[{"header":{"parameterUnit":"m.s-1","parameterCategory":1,"la1":30.2991,"la2":30.254,"lo1":-89.0895,"lo2":-89.0444,"dy":0.0017,"dx":0.0017,"nx":28,"ny":28,"refTime":"2024-02-11T03:00:00:Z","depth":0,"parameterNumber":2,"parameterNumberName":"U-component_of_WINDS"},"data":[0,0,0,0,0,0,0,0,0,0,0,0,0,0,0,0,0,0,0,0,0,0,0,0,0,0,0,0,0,0,0,0,0,0,0,0,0,0,0,0,0,0,0,0,0,0,0,0,0,0,0,0,0,0,0,0,0,0,7.0639,7.064,0,7.0769,7.0771,7.0772,7.0678,7.0674,7.067,7.0666,7.0805,7.0812,7.082,0,0,0,0,0,0,0,0,0,0,0,0,0,7.0316,7.0322,7.0639,7.064,7.0642,7.0769,7.0771,7.0773,7.0679,7.0674,7.0669,7.0664,7.0802,7.0811,7.082,0,0,0,0,0,0,0,0,0,0,0,0,0,7.0452,7.0324,7.0639,7.061,7.0609,7.0769,7.0771,7.0773,7.068,7.0674,7.0667,7.0661,7.0799,7.081,7.0822,7.1017,0,0,7.0856,7.0861,0,0,0,0,0,0,0,0,7.0445,7.0464,7.0613,7.0613,7.0612,7.0701,7.0708,7.0855,7.0682,7.0653,7.0666,7.0658,7.0776,7.0789,7.0827,7.1024,7.103,7.0857,7.0864,7.0869,7.0872,0,0,0,0,0,0,0,7.0435,7.0458,7.0691,7.0615,7.0615,7.0594,7.0606,7.0735,7.0748,7.0655,7.0649,7.0665,7.0774,7.0816,7.0829,7.1032,7.0857,7.0867,7.0874,7.0879,7.1401,7.1408,0,0,0,0,0,0,7.0427,7.0451,7.0686,7.0694,7.0511,7.0605,7.0618,7.0679,7.0746,7.0751,7.067,7.066,7.08,7.0816,7.0834,7.1071,7.0869,7.088,7.0886,7.1394,7.1403,7.141,0,0,0,0,0,0,7.0421,7.0449,7.0681,7.0571,7.0599,7.0617,7.0685,7.0685,7.0726,7.0758,7.076,7.0711,7.0795,7.0818,7.0973,7.1075,7.0885,7.0895,7.1386,7.1397,7.1407,7.1545,0,0,0,0,0,0,7.0412,7.0448,7.052,7.0573,7.0605,7.0817,7.0691,7.0692,7.0746,7.0734,7.0796,7.0801,7.0792,7.0957,7.0985,7.1087,7.0904,7.1377,7.1391,7.1403,7.1532,7.1559,7.1583,0,0,0,0,0,7.0401,7.0554,7.0524,7.0553,7.0696,7.0822,7.0841,7.0827,7.0754,7.0829,7.085,7.0799,7.1059,7.0973,7.1004,7.1111,7.1371,7.1387,7.1402,7.152,7.1554,7.1582,0,0,0,0,0,0,7.0514,7.0561,7.0528,7.0703,7.0759,7.0806,7.09,7.0862,7.0941,7.0927,7.0907,7.0922,7.1086,7.1114,7.1018,7.1307,7.1203,7.1226,7.1283,7.1315,7.134,7.1331,7.0914,0,0,0,0,0,7.0559,7.0656,7.0692,7.0843,7.0873,7.0882,7.0936,7.092,7.0979,7.1003,7.1034,7.1095,7.119,7.1254,7.1343,7.1535,7.1549,7.1624,7.165,7.167,7.1691,7.1799,7.1834,7.1462,7.1462,7.1462,0,0,7.0654,7.0691,7.0753,7.0867,7.0908,7.1012,7.0903,7.1015,7.1093,7.102,7.1169,7.1195,7.1262,7.1437,7.1516,7.1465,7.1797,7.1691,7.1707,7.1717,7.1819,7.1854,7.1885,7.1473,7.1471,7.147,0,0,7.0879,7.0916,7.1047,7.1092,7.1156,7.1162,7.1194,7.1247,7.1262,7.141,7.1359,7.1452,7.1616,7.1666,7.1714,7.1962,7.192,7.1992,7.2126,7.2232,7.2261,7.2287,7.2379,7.2412,7.2012,7.2012,7.2012,0,7.0989,7.1141,7.112,7.1238,7.1291,7.1229,7.1365,7.1409,7.1501,7.154,7.1481,7.1688,7.1728,7.1917,7.1978,7.2017,7.2055,7.1985,7.2258,7.2284,7.2308,7.2396,7.243,7.2021,7.202,7.2019,7.2018,0,7.1275,7.1381,7.148,7.157,7.1634,7.176,7.1761,7.1829,7.1808,7.1821,7.1976,7.2022,7.2121,7.2164,7.2145,7.2352,7.2319,7.226,7.2156,7.2352,7.2435,7.2468,7.2033,7.203,7.2027,7.2025,0,0,7.1576,7.1653,7.1691,7.1732,7.18,7.1883,7.2008,7.2104,7.2165,7.223,7.2337,7.2478,7.2425,7.2479,7.2465,7.2557,7.2756,7.2487,7.2488,7.2538,7.2992,7.3038,7.3077,7.2727,7.2734,7.2739,7.2987,0,7.1808,7.2024,7.201,7.2215,7.2315,7.2259,7.2368,7.2424,7.2439,7.2529,7.2546,7.2649,7.2568,7.2601,7.2689,7.2713,7.2847,7.2694,7.283,7.2835,7.2818,7.312,7.3169,7.3401,7.3019,7.3024,7.3028,0,7.2107,7.2184,7.2398,7.2454,7.2496,7.2594,7.2683,7.2768,7.2831,7.2836,7.2898,7.287,7.3,7.2891,7.3072,7.2969,7.3023,7.3044,7.3052,7.3067,7.2946,7.3146,7.3474,7.3511,7.3078,7.3074,7.3071,0,7.2311,7.2466,7.2615,7.2652,7.272,7.2792,7.2824,7.288,7.294,7.3018,7.3058,7.3151,7.3203,7.3277,7.3276,7.3196,7.3461,7.3351,7.3472,7.3473,7.3532,7.3529,7.3878,7.3563,7.3562,7.3562,7.3561,0,7.2573,7.2707,7.2708,7.28,7.2951,7.2935,7.3085,7.3109,7.3161,7.3259,7.3216,7.331,7.3301,7.3397,7.3397,7.355,7.3572,7.3583,7.3582,7.3589,7.3588,7.3627,7.3612,7.3571,7.3569,7.3567,7.3565,0,7.2826,7.2831,7.2991,7.3042,7.3059,7.3168,7.3213,7.3303,7.3314,7.344,7.3469,7.3489,7.36,7.3606,7.3734,7.3734,7.392,7.39,7.3899,7.3897,7.4019,7.4009,7.4407,7.446,7.4107,7.4111,7.4113,0,7.2994,7.3097,7.316,7.3222,7.3258,7.3359,7.342,7.3409,7.3475,7.3556,7.3637,7.3743,7.3828,7.4008,7.4036,7.4135,7.4119,7.4251,7.4133,7.4138,7.4125,7.4121,7.4133,7.4275,7.4279,7.4282,7.4285,0,7.3295,7.3293,7.3381,7.3473,7.3547,7.3618,7.3685,7.3739,7.3736,7.3813,7.3926,7.3991,7.4122,7.423,7.4327,7.4362,7.4326,7.4322,7.4356,7.4365,7.4362,7.4369,7.3966,7.4313,7.431,7.4308,7.4307,7.4306,7.3513,7.3603,7.3662,7.3764,7.3812,7.3876,7.3964,7.3987,7.408,7.4185,7.4173,7.4299,7.4363,7.4489,7.4532,7.4633,7.4588,7.4636,7.4649,7.4662,7.4677,7.4344,7.465,7.4649,7.4648,7.4648,7.4647,0,7.3815,7.385,7.3943,7.4038,7.4119,7.4074,7.4147,7.4218,7.4329,7.4391,7.4475,7.4607,7.4711,7.4748,7.4851,7.4925,7.4911,7.4953,7.4949,7.4959,7.4709,7.4671,7.4962,7.4962,7.4962,7.4962,7.4962,7.4962,7.3981,7.4132,7.4138,7.4313,7.4348,7.447,7.4516,7.4576,7.4625,7.4774,7.486,7.4882,7.4936,7.5043,7.5138,7.5146,7.5188,7.5238,7.524,7.5007,7.4975,7.4945,7.491,7.5246,7.5247,7.5481,7.5484,7.5485]},{"header":{"parameterUnit":"m.s-1","parameterCategory":1,"la1":30.2991,"la2":30.254,"lo1":-89.0895,"lo2":-89.0444,"dy":0.0017,"dx":0.0017,"nx":28,"ny":28,"refTime":"2024-02-11T03:00:00:Z","depth":0,"parameterNumber":3,"parameterNumberName":"V-component_of_WINDS"},"data":[0,0,0,0,0,0,0,0,0,0,0,0,0,0,0,0,0,0,0,0,0,0,0,0,0,0,0,0,0,0,0,0,0,0,0,0,0,0,0,0,0,0,0,0,0,0,0,0,0,0,0,0,0,0,0,0,0,0,-0.4232,-0.4231,0,-0.411,-0.4108,-0.4107,-0.4082,-0.4083,-0.4084,-0.4085,-0.3955,-0.3951,-0.3946,0,0,0,0,0,0,0,0,0,0,0,0,0,-0.4443,-0.4439,-0.4232,-0.4231,-0.4229,-0.411,-0.4108,-0.4107,-0.4082,-0.4083,-0.4084,-0.4085,-0.3956,-0.3951,-0.3946,0,0,0,0,0,0,0,0,0,0,0,0,0,-0.4339,-0.4438,-0.4233,-0.4203,-0.4199,-0.411,-0.4108,-0.4106,-0.4082,-0.4083,-0.4085,-0.4086,-0.3958,-0.3952,-0.3945,-0.3876,0,0,-0.3925,-0.3923,0,0,0,0,0,0,0,0,-0.4345,-0.4331,-0.4209,-0.4205,-0.42,-0.4113,-0.4135,-0.4029,-0.4081,-0.4126,-0.4085,-0.4087,-0.4006,-0.3996,-0.3969,-0.387,-0.3865,-0.3925,-0.3921,-0.3918,-0.3916,0,0,0,0,0,0,0,-0.4352,-0.4336,-0.4184,-0.4207,-0.4202,-0.4195,-0.4181,-0.4114,-0.4059,-0.4122,-0.412,-0.4106,-0.4004,-0.3976,-0.3966,-0.3863,-0.3925,-0.3919,-0.3915,-0.3913,-0.3702,-0.3701,0,0,0,0,0,0,-0.4365,-0.4342,-0.4188,-0.418,-0.4278,-0.419,-0.4175,-0.4139,-0.406,-0.4049,-0.4105,-0.4106,-0.3986,-0.3974,-0.3961,-0.3876,-0.3918,-0.3912,-0.3908,-0.3704,-0.3702,-0.37,0,0,0,0,0,0,-0.4369,-0.4351,-0.4193,-0.4261,-0.424,-0.4185,-0.4145,-0.4136,-0.4108,-0.4047,-0.4037,-0.4087,-0.3987,-0.3971,-0.3898,-0.3871,-0.3909,-0.3903,-0.3706,-0.3703,-0.3701,-0.3705,0,0,0,0,0,0,-0.4376,-0.4353,-0.4327,-0.426,-0.4236,-0.4132,-0.4143,-0.4133,-0.4097,-0.4097,-0.4027,-0.4017,-0.3987,-0.3908,-0.3892,-0.3863,-0.3898,-0.3708,-0.3705,-0.3702,-0.3707,-0.3703,-0.3699,0,0,0,0,0,-0.4383,-0.4332,-0.4326,-0.4307,-0.4203,-0.4131,-0.4117,-0.4085,-0.4095,-0.4068,-0.4029,-0.4019,-0.3877,-0.3901,-0.3882,-0.3851,-0.3709,-0.3706,-0.3702,-0.3709,-0.3704,-0.37,0,0,0,0,0,0,-0.4395,-0.4322,-0.4315,-0.4241,-0.4192,-0.4127,-0.4092,-0.408,-0.4027,-0.4028,-0.3989,-0.3973,-0.3903,-0.387,-0.3898,-0.3781,-0.3794,-0.3786,-0.3805,-0.38,-0.3796,-0.3806,-0.3893,0,0,0,0,0,-0.4389,-0.4338,-0.4277,-0.4217,-0.4194,-0.4147,-0.4114,-0.4094,-0.4042,-0.4021,-0.3976,-0.3925,-0.3869,-0.3833,-0.3778,-0.3702,-0.3687,-0.3672,-0.3668,-0.3665,-0.3659,-0.3617,-0.361,-0.3688,-0.3688,-0.3688,0,0,-0.4376,-0.433,-0.43,-0.4219,-0.4179,-0.4126,-0.413,-0.4073,-0.4034,-0.4011,-0.3941,-0.3907,-0.3847,-0.3774,-0.3739,-0.3743,-0.3634,-0.366,-0.3659,-0.3654,-0.3613,-0.3606,-0.3599,-0.3685,-0.3685,-0.3686,0,0,-0.4325,-0.4286,-0.4232,-0.4193,-0.4133,-0.4103,-0.409,-0.4026,-0.4004,-0.3933,-0.3915,-0.3867,-0.3771,-0.3729,-0.3696,-0.3631,-0.362,-0.3614,-0.3594,-0.3555,-0.3548,-0.3543,-0.352,-0.3513,-0.3608,-0.3608,-0.3608,0,-0.4316,-0.4237,-0.4206,-0.4151,-0.4115,-0.4095,-0.404,-0.4003,-0.3928,-0.3904,-0.391,-0.3791,-0.3749,-0.3666,-0.365,-0.3623,-0.3607,-0.3622,-0.3552,-0.3546,-0.354,-0.3518,-0.351,-0.3608,-0.3608,-0.3608,-0.3608,0,-0.4229,-0.4175,-0.4138,-0.4069,-0.4029,-0.3974,-0.3934,-0.3898,-0.3881,-0.385,-0.3778,-0.3728,-0.3663,-0.3641,-0.3623,-0.3556,-0.3561,-0.356,-0.3572,-0.3533,-0.3512,-0.3503,-0.3608,-0.3608,-0.3608,-0.3608,0,0,-0.4181,-0.4096,-0.4083,-0.4052,-0.3985,-0.3942,-0.3887,-0.3825,-0.3795,-0.3744,-0.3696,-0.3616,-0.3616,-0.3578,-0.3555,-0.352,-0.3474,-0.3524,-0.3522,-0.3517,-0.3396,-0.3397,-0.3388,-0.3466,-0.3464,-0.3463,-0.3401,0,-0.4123,-0.4025,-0.3995,-0.3912,-0.3862,-0.3842,-0.3794,-0.3748,-0.3717,-0.3669,-0.3635,-0.358,-0.3583,-0.356,-0.3525,-0.3487,-0.3449,-0.3491,-0.3421,-0.3419,-0.3436,-0.3377,-0.3377,-0.3321,-0.3393,-0.3391,-0.339,0,-0.4041,-0.3991,-0.3904,-0.3845,-0.3823,-0.378,-0.3722,-0.3676,-0.3623,-0.3603,-0.3562,-0.3543,-0.3484,-0.35,-0.3418,-0.3447,-0.3417,-0.3394,-0.3391,-0.3383,-0.3402,-0.3367,-0.3303,-0.3295,-0.3377,-0.3378,-0.3379,0,-0.4016,-0.3926,-0.3863,-0.3836,-0.3766,-0.3737,-0.3706,-0.3654,-0.3619,-0.3568,-0.3545,-0.3487,-0.3455,-0.341,-0.3375,-0.339,-0.3297,-0.331,-0.3278,-0.3279,-0.3259,-0.3261,-0.3189,-0.3239,-0.324,-0.324,-0.324,0,-0.3954,-0.3901,-0.3851,-0.3812,-0.3752,-0.3719,-0.366,-0.3628,-0.3583,-0.3537,-0.3516,-0.3473,-0.343,-0.3382,-0.3354,-0.3291,-0.3276,-0.3258,-0.3252,-0.326,-0.3263,-0.324,-0.3243,-0.3237,-0.3238,-0.3238,-0.3239,0,-0.3915,-0.3879,-0.3809,-0.3749,-0.3732,-0.3691,-0.3639,-0.36,-0.357,-0.3512,-0.3496,-0.3448,-0.339,-0.3351,-0.3276,-0.3258,-0.3189,-0.3183,-0.3207,-0.3204,-0.3175,-0.3178,-0.3086,-0.3072,-0.3132,-0.3132,-0.3131,0,-0.3878,-0.3837,-0.3773,-0.3742,-0.3711,-0.366,-0.3625,-0.3591,-0.3555,-0.3493,-0.3461,-0.3402,-0.3353,-0.326,-0.3218,-0.3161,-0.3153,-0.3125,-0.3144,-0.3155,-0.3153,-0.3156,-0.3152,-0.3122,-0.3121,-0.3121,-0.312,0,-0.3816,-0.3801,-0.3751,-0.3696,-0.3655,-0.361,-0.3564,-0.3539,-0.3497,-0.3457,-0.3399,-0.3361,-0.3285,-0.3226,-0.3166,-0.3133,-0.3119,-0.3115,-0.3105,-0.3113,-0.3129,-0.312,-0.3199,-0.3117,-0.3117,-0.3118,-0.3118,-0.3118,-0.3777,-0.374,-0.369,-0.3636,-0.3599,-0.3557,-0.3518,-0.3483,-0.3434,-0.3371,-0.3353,-0.3292,-0.3241,-0.3158,-0.3124,-0.3076,-0.3079,-0.3064,-0.306,-0.3057,-0.3057,-0.3137,-0.3064,-0.3064,-0.3064,-0.3064,-0.3064,0,-0.3714,-0.3681,-0.3632,-0.357,-0.3528,-0.3521,-0.347,-0.3435,-0.3382,-0.3336,-0.3288,-0.3221,-0.3164,-0.3118,-0.306,-0.303,-0.3022,-0.3016,-0.3017,-0.301,-0.3057,-0.3072,-0.3023,-0.3023,-0.3023,-0.3023,-0.3023,-0.3023,-0.3677,-0.3615,-0.3594,-0.3513,-0.348,-0.3421,-0.3393,-0.3354,-0.3318,-0.3244,-0.3197,-0.3168,-0.3122,-0.3061,-0.3009,-0.2996,-0.2976,-0.2971,-0.2957,-0.3002,-0.3007,-0.3011,-0.3025,-0.2966,-0.2966,-0.2914,-0.2914,-0.2913]}]]